Flag for Austria Weather past 2 weeks in Melk, Lower Austria, Austria

Now
28 °F

Chilly.


Feels Like: 28 °F
Forecast: 40 / 49 °F
Wind: 1 mph from West

Location: Amstetten

Current Time: Mar 1, 2015 at 6:13:50 AM

Latest Report: Mar 1, 2015 at 5:00 AM


Visibility: N/A

Pressure: 30.03 "Hg

Humidity: 98%

Dew point: 28 °F

Location of MelkLocation

Historic Weather in Melk — Graph

°F

Melk temperature yesterday

Maximum temperature yesterday: 43 °F (at 4:00 PM)
Minimum temperature yesterday: 30 °F (at 11:00 PM)
Average temperature yesterday: 38 °F

Past Weeks' High & Low Weather Summary

 TemperatureHumidityPressure
High53 °F (Feb 16, 3:00 PM)100% (Feb 23, 7:00 AM)30.79 "Hg (Feb 23, 7:00 AM)
Low24 °F (Feb 20, 6:00 AM)46% (Feb 21, 4:00 PM)29.54 "Hg (Feb 21, 5:00 PM)
Average37 °F84%30.08 "Hg
* Reported Feb 14 5:00 AM — Mar 1 4:00 AM, Melk, Weather by CustomWeather, © 2015

Note: Actual official high and low records may vary slightly from our data, if they occured in-between our weather recording intervals... More about our weather records

Advertising

Melk weather history for previous 24 hours

 ConditionsComfort  
Time TempWeatherWind HumidityBarometerVisibility
4:00 AM
Sun, Mar 1
28 °FChilly.1 mph99%30.04 "HgN/A
3:00 AM27 °FChilly.No wind95%30.05 "HgN/A
2:00 AM27 °FChilly.1 mph94%30.09 "HgN/A
1:00 AM28 °FChilly.1 mph93%30.11 "HgN/A
12:00 AM29 °FChilly.1 mph95%30.11 "HgN/A
11:00 PM
Sat, Feb 28
30 °FChilly.1 mph92%30.13 "HgN/A
10:00 PM31 °FChilly.1 mph92%30.14 "HgN/A
9:00 PM31 °FChilly.No wind90%30.16 "HgN/A
8:00 PM33 °FChilly.2 mph88%30.16 "HgN/A
7:00 PM35 °FChilly.No wind83%30.15 "HgN/A
6:00 PM38 °FChilly.1 mph79%30.14 "HgN/A
5:00 PM42 °FQuite cool.1 mph68%30.14 "HgN/A
4:00 PM43 °FQuite cool.2 mph66%30.15 "HgN/A
3:00 PM42 °FQuite cool.2 mph69%30.15 "HgN/A
2:00 PM42 °FQuite cool.3 mph73%30.16 "HgN/A
1:00 PM41 °FQuite cool.2 mph79%30.19 "HgN/A
12:00 PM40 °FQuite cool.2 mph78%30.19 "HgN/A
11:00 AM39 °FChilly.3 mph82%30.20 "HgN/A
10:00 AM39 °FChilly.2 mph85%30.19 "HgN/A
9:00 AM38 °FFog.2 mph87%30.19 "HgN/A
8:00 AM38 °FChilly.2 mph84%30.17 "HgN/A
7:00 AM38 °FChilly.2 mph83%30.14 "HgN/A
6:00 AM38 °FChilly.3 mph81%30.13 "HgN/A
Weather by CustomWeather, © 2015

See weather overviewHow to use our weather pages